Regional Weather Roundup
Issued by NWS

Home | Current Version | Previous Version | Text Only | Print | Product List | Glossary Off
Versions: 1 2 3 4 5 6 7 8 9 10 11 12 13 14 15 16 17 18 19 20 21 22 23 24 25 26 27 28 29 30 31 32 33 34 35 36 37 38 39 40 41 42 43 44 45 46 47 48 49 50

000
ASUS43 KOAX 301110
RWRNE

WEATHER ROUNDUP FOR NEBRASKA
NATIONAL WEATHER SERVICE OMAHA NE
600 AM CDT TUE MAY 30 2017

NOTES: SATELLITE DATA IS BEING USED TO AUGMENT CLOUD COVER ABOVE
       12000 FEET.
       "FAIR" INDICATES FEW OR NO CLOUDS BELOW 12,000 FEET WITH NO
       SIGNIFICANT WEATHER AND/OR OBSTRUCTIONS TO VISIBILITY.

  * THESE STATIONS DO NOT REPORT WEATHER SUCH AS RAIN...SNOW OR FOG.

NEZ001>004-019>022-054>056-301200-
NEBRASKA PANHANDLE

CITY           SKY/WX    TMP DP  RH WIND       PRES   REMARKS
SCOTTSBLUFF    CLEAR     40  35  83 N7        30.16S
ALLIANCE       CLEAR     31  29  92 W7        30.15S WCI  24
CHADRON        CLEAR     37  33  85 SW3       30.14S
GORDON         FAIR      35  32  88 CALM      30.13S
KIMBALL        CLEAR     43  40  92 NW8       30.19S
SIDNEY         CLEAR     40  38  93 NW6       30.17S
$$

NEZ057>060-069>072-079>082-301200-
SOUTHWEST NEBRASKA

CITY           SKY/WX    TMP DP  RH WIND       PRES   REMARKS
NORTH PLATTE   CLEAR     37  35  92 NW3       30.12S
IMPERIAL       CLEAR     47  44  90 NW6       30.13R
LEXINGTON      CLEAR     43  38  85 W5        30.12R
MCCOOK         PTCLDY    50  47  89 W8        30.12R
OGALLALA       PTCLDY    42  39  90 W5        30.14S
$$

NEZ005>010-023>029-035>040-094-301200-
NORTH CENTRAL NEBRASKA

CITY           SKY/WX    TMP DP  RH WIND       PRES   REMARKS
VALENTINE      CLEAR     39  34  82 W5        30.11R
AINSWORTH      CLEAR     42  38  87 W6        30.11R
BROKEN BOW     PTCLDY    41  36  82 CALM      30.11R
O`NEILL        PTCLDY    45  37  75 SW3       30.08R
ORD            CLEAR     41  36  82 CALM      30.09R
THEDFORD       CLEAR     41  37  85 SW5       30.13S
$$

NEZ041-046>049-061>064-073>077-083>087-301200-
SOUTH CENTRAL NEBRASKA

CITY           SKY/WX    TMP DP  RH WIND       PRES   REMARKS
GRAND ISLAND   PTCLDY    46  41  82 W6        30.10R
AURORA         CLEAR     48  41  77 W5        30.09S
HASTINGS       CLEAR     52  39  61 SW3       30.11R
HEBRON         PTCLDY    48  46  90 CALM      30.10R
HOLDREGE       CLEAR     46  40  80 CALM      30.11R
KEARNEY *      CLEAR     48  37  66 CALM      30.11S
YORK           PTCLDY    48  41  76 W7        30.09R
$$

NEZ011>018-030>034-042>045-301200-
NORTHEAST NEBRASKA

CITY           SKY/WX    TMP DP  RH WIND       PRES   REMARKS
NORFOLK        CLEAR     44  39  82 W7        30.06R
ALBION         CLEAR     47  38  72 N6        30.08R
BLAIR          CLEAR     55  42  63 SW6       30.05R
FREMONT        PTCLDY    53  42  65 SW7       30.06R
TEKAMAH        CLEAR     49  39  68 S5        30.04R
WAYNE          CLEAR     46  42  85 CALM      30.05R
$$

NEZ050>053-065>068-078-088>093-301200-
SOUTHEAST NEBRASKA

CITY           SKY/WX    TMP DP  RH WIND       PRES   REMARKS
LINCOLN        MOCLDY    47  42  83 CALM      30.08R
OMAHA EPPLEY   PTCLDY    51  45  79 SE7       30.05R
BEATRICE       CLEAR     47  43  85 CALM      30.09R
NEBRASKA CITY  MOCLDY    53  39  59 W10       30.06R
PLATTSMOUTH    MOCLDY    54  43  66 CALM      30.06R
$$

NEZ044-045-051>053-067-301200-
OMAHA AREA

CITY           SKY/WX    TMP DP  RH WIND       PRES   REMARKS
OMAHA EPPLEY   PTCLDY    51  45  79 SE7       30.05R
BLAIR          CLEAR     55  42  63 SW6       30.05R
FREMONT        PTCLDY    53  42  65 SW7       30.06R
MILLARD        CLEAR     50  48  95 CALM      30.06R
OFFUTT AFB     CLEAR     47  46  93 CALM      30.05R
PLATTSMOUTH    MOCLDY    54  43  66 CALM      30.06R
WAHOO          FAIR      53  39  59 W10       30.06S
$$




USA.gov is the U.S. government's official web portal to all federal, state and local government web resources and services.